Location: Brandeburen
(52.9500°N, 5.5000°E)
Time: 20:15:28
(UTC+00:00)

Daily predictions for brighter satellites

Satellite Brightness Start Highest point End
(mag) Time Altitude Azimuth Time Altitude Azimuth Time Altitude Azimuth
Cosmos 1455 2.7 19:17:19 10° SSE 19:20:48 38° E 19:24:18 10° NNE
ATLAS 5 CENTAUR R/B 2.5 19:19:27 10° WSW 19:23:32 53° NW 19:28:17 10° NE
Cosmos 1633 4.2 19:24:40 10° NNE 19:27:19 19° ENE 19:29:56 10° ESE
Cosmos 1356 4.2 19:25:41 10° N 19:28:51 34° ENE 19:32:00 10° SE
Resurs 1-3 3.6 19:25:10 10° SSE 19:29:32 70° ENE 19:33:55 10° N
ATLAS 5 CENTAUR R/B 2.3 19:29:06 10° WNW 19:30:44 22° SW 19:32:27 10° SSE
Lacrosse 5 rocket 1.7 19:26:55 10° WSW 19:31:00 68° NNW 19:35:20 10° ENE
IGS 5A 4.1 19:28:15 10° SE 19:32:06 38° ENE 19:35:58 10° N
Cosmos 2034 Rocket 4.2 19:26:34 10° SSW 19:32:48 81° WNW 19:39:08 10° N
Cosmos 405 Rocket 3.3 19:29:19 10° N 19:33:13 44° ENE 19:37:02 10° SE
Cosmos 2237 Rocket 2.5 19:34:50 10° NNW 19:40:23 53° NE 19:45:35 11° SE
Exosat Rocket 4.0 19:34:05 10° NNW 19:41:15 86° WSW 19:46:35 10° SSE
SJ-6B 3.6 19:39:38 10° S 19:43:15 49° W 19:46:56 10° NNW
BREEZE-M DEB (TANK) 4.2 19:38:55 10° WSW 19:43:23 39° S 19:48:20 10° E
Cosmos 2279 Rocket 4.4 19:37:37 10° SSE 19:43:23 43° E 19:49:11 10° NNE
SPOT 5 4.4 19:40:21 10° ESE 19:43:46 21° NE 19:47:18 10° N
Meteor 2-10 Rocket 3.7 19:39:26 10° SSW 19:44:43 86° WNW 19:50:17 10° NNE
BREEZE-M DEB (TANK) 4.3 19:42:23 10° SW 19:45:38 46° SSE 19:54:03 10° E
Spot 2 Rocket 4.4 19:41:32 11° ESE 19:45:52 33° ENE 19:50:24 10° N
Cosmos 2026 Rocket 4.0 19:41:32 10° N 19:47:38 88° W 19:53:45 10° S
Cosmos 405 3.0 19:47:19 10° SSW 19:50:46 81° WNW 19:54:17 10° NNE
OBJECT-B 2.3 19:48:41 10° SSW 19:51:41 36° W 19:54:44 10° NNW
Terra 3.5 19:50:06 10° E 19:53:22 20° NE 19:56:46 10° N
Cosmos 1892 4.4 19:50:49 10° NNW 19:54:15 34° W 19:57:40 10° SSW
USA-17 4.2 19:51:08 10° SW 19:54:40 65° SE 19:57:43 10° NE
BREEZE-M DEB (TANK) 4.1 19:50:39 10° WSW 19:55:08 72° SSE 20:13:25 10° ENE
NOSS 3-4 (A) 3.6 19:50:15 10° SW 19:56:11 81° NW 20:02:43 10° NE
NOSS 3-4 (C) 3.6 19:50:21 10° SW 19:56:18 82° NW 20:02:49 10° NE
MetOp-B 4.3 19:52:09 10° SSE 19:57:22 62° ENE 20:02:41 10° N
Cosmos 2227 Rocket 3.5 19:57:04 14° SE 19:59:48 19° E 20:03:37 10° ENE
SPOT 1/Viking Rocket 3.8 19:58:12 13° SE 20:02:44 54° ENE 20:07:50 10° N
Cosmos 2251 Rocket 3.6 19:58:05 10° S 20:03:21 59° ESE 20:08:36 10° NNE
Cosmos 389 Rocket 3.0 20:00:14 11° SSE 20:03:21 38° E 20:06:42 10° NNE
Cosmos 2333 Rocket 3.4 19:58:24 10° NW 20:03:45 40° WSW 20:09:02 10° S
Cosmos 2266 Rocket 4.4 19:58:33 10° N 20:04:45 48° ENE 20:09:47 15° SE
Cosmos 2297 Rocket 3.1 20:02:24 10° SSE 20:06:59 26° ESE 20:11:35 10° NE
Cosmos 1825 3.0 20:03:25 10° NNW 20:07:05 50° W 20:10:45 10° S
BREEZE-M DEB (TANK) 2.6 20:05:11 10° W 20:07:22 31° SSW 20:08:17 22° SSE
Cosmos 1634 Rocket 4.0 20:01:49 10° S 20:08:06 90° SW 20:14:24 10° N
SPOT 3 Rocket 3.6 20:04:02 10° SSE 20:09:15 88° WSW 20:14:29 10° NNW
Cosmos 2219 4.2 20:05:52 13° SSE 20:09:39 25° ESE 20:14:09 10° NE
ATLAS 2AS CENTAUR R/B 3.0 20:02:01 10° SW 20:09:58 87° SE 20:17:43 10° NE
NOSS 7 (H) 4.1 20:07:26 10° SW 20:10:37 80° NW 20:13:32 10° NE
ARIANE 5 R/B 3.1 20:09:19 18° SE 20:12:20 45° ENE 20:16:32 10° N
Ariane Rocket 4.0 20:10:03 10° S 20:14:52 45° W 20:19:44 10° NNW
Orbus 7S? 3.5 20:17:20 10° SW 20:20:22 60° SE 20:26:29 10° ENE
CZ-4C R/B 3.3 20:16:57 10° WSW 20:22:10 48° NNW 20:28:34 10° NE
Genesis I 3.4 20:19:06 10° NW 20:23:05 65° NE 20:25:22 24° ESE
RESURS DK-1 2.3 20:19:00 10° SSW 20:23:08 85° ESE 20:27:18 10° NE
Landsat 7 3.9 20:20:37 13° SSE 20:24:55 79° WSW 20:29:43 10° NNW
USA 245 3.0 20:24:37 21° SSE 20:27:04 72° ENE 20:30:18 10° N
Cosmos-2242 3.6 20:25:50 22° SE 20:28:00 38° E 20:32:00 10° NNE
Cosmos 2058 4.4 20:24:12 10° NNW 20:28:05 36° W 20:31:54 10° SSW
NOSS 7 (E) 4.2 20:25:45 10° SW 20:29:17 87° NW 20:32:21 10° NE
Cosmos 2180 Rocket 4.4 20:24:30 10° S 20:30:37 70° E 20:36:45 10° NNE
Cosmos 1655 Rocket 4.0 20:26:25 10° N 20:32:47 80° E 20:37:45 17° SSE
Cosmos 482 Debris 3.2 20:32:11 10° WSW 20:33:56 44° SW 20:33:56 44° SW
SL-16 R/B 2.6 20:28:49 10° NNW 20:34:24 52° NE 20:37:53 22° ESE
NOSS 3-1 (C) 4.4 20:27:49 10° NW 20:34:33 53° NNE 20:41:19 15° ESE
Cosmos 1980 3.9 20:30:01 10° NW 20:35:41 70° WSW 20:39:44 19° SSE
Cosmos 614 Rocket 3.8 20:32:52 10° SSW 20:38:00 79° ESE 20:43:08 10° NNE
BREEZE-M DEB (TANK) 4.2 20:34:38 10° WSW 20:39:23 70° SSE 20:58:21 10° E
Cosmos 2151 3.0 20:38:15 10° NNW 20:42:35 82° W 20:45:16 23° S
COSMOS 2428 4.4 20:39:13 10° NW 20:44:04 29° WSW 20:48:54 10° SSW
Meteor 2-3 Rocket 3.7 20:38:46 10° NNW 20:44:36 84° ENE 20:48:26 22° SSE
ATLAS 3B R/B 3.8 20:41:04 10° NW 20:47:25 38° WSW 20:53:12 13° S
Cosmos 2344 3.5 20:40:44 10° SW 20:48:09 85° SE 20:56:27 10° NE
FALCON 9 DEB 3.3 20:46:12 10° SW 20:49:29 46° SSE 20:49:45 45° SE
USA 215 3.6 20:45:38 22° SSE 20:49:48 53° SW 20:56:12 10° WNW
Cosmos 1812 Rocket 3.7 20:47:57 11° SSW 20:52:16 78° WNW 20:56:47 10° N
Cosmos 2221 4.1 20:53:19 19° E 20:53:19 19° E 20:56:16 10° NE
Resurs 01 Rocket 3.1 20:50:39 10° SSW 20:54:40 33° W 20:58:44 10° NNW
Cosmos 1818 3.6 20:50:28 10° SW 20:55:56 88° NW 21:01:28 10° NE
Cosmos 2219 Rocket 4.3 20:52:51 10° NW 20:56:52 20° W 21:00:53 10° SW
ERS-1 Rocket 2.9 20:54:40 29° SSE 20:57:17 78° ENE 21:02:20 10° NNW
Okean 3 Rocket 3.7 20:53:02 10° N 20:57:35 65° ENE 20:59:21 35° SE
Cosmos 44 3.6 20:52:55 10° SW 20:58:07 78° NW 21:03:35 10° NE
Cosmos 407 Rocket 3.4 20:53:35 12° SSW 20:58:17 67° ESE 21:03:27 10° NNE
Cosmos 1766 Rocket 3.5 20:57:36 10° N 21:01:57 70° ENE 21:03:29 39° SSE
Cosmos 1633 3.5 20:58:52 10° NNW 21:02:18 43° W 21:04:10 23° SSW
CARTOSAT-1 3.7 21:04:22 30° S 21:06:25 70° WSW 21:10:45 10° NNW
ATLAS 5 CENTAUR R/B 3.9 21:05:20 10° WNW 21:09:09 26° N 21:13:31 10° NE
Meteor 1-4 Rocket 3.1 21:10:11 39° E 21:10:11 39° E 21:13:12 10° NNE
Lacrosse 5 rocket 2.3 21:06:29 10° WNW 21:10:35 48° N 21:14:11 14° ENE
Cosmos 1954 Rocket 4.3 21:12:17 37° SSE 21:13:39 45° ESE 21:18:35 10° NE
Cosmos 909 Rocket 4.2 21:08:09 10° SW 21:14:26 77° NW 21:21:08 10° NE
Cosmos 1023 Rocket 4.3 21:12:05 15° SSW 21:16:17 83° ESE 21:21:25 10° NNE
COSMOS 2455 3.4 21:18:15 34° SE 21:19:07 36° ESE 21:24:33 10° NE
Cosmos 1869 3.2 21:18:39 54° SSE 21:19:19 66° E 21:23:16 10° NNE
SPOT 5 2.9 21:19:30 35° S 21:21:20 70° WSW 21:26:08 10° NNW
Cosmos 1140 Rocket 3.4 21:18:31 16° SSW 21:22:44 89° ESE 21:27:54 10° NNE
Cosmos 2237 Rocket 3.4 21:19:12 10° NW 21:24:16 35° WSW 21:27:26 20° SSW
Spot 2 Rocket 4.3 21:21:43 22° SSW 21:24:44 46° W 21:29:38 10° NNW
SeaSat 1 3.8 21:21:38 10° NE 21:24:37 22° E 21:24:37 22° E
Terra 1.8 21:28:59 42° S 21:30:36 79° WSW 21:35:24 10° NNW
Timation 1 Rocket 4.5 21:33:37 39° SSE 21:35:18 50° ESE 21:41:03 10° NE
Cosmos 2082 3.8 21:39:13 44° SSE 21:40:24 52° ESE 21:45:52 10° NE
USA 229 DEB 4.0 21:34:44 10° NW 21:41:53 69° NE 21:46:07 28° ESE
Cosmos 2263 Rocket 3.7 21:42:46 20° E 21:42:46 20° E 21:45:55 10° NE
USA 229 4.0 21:34:50 10° NW 21:41:59 69° NE 21:46:14 28° ESE
Cosmos 468 Rocket 3.9 21:37:12 10° NNW 21:42:21 87° WSW 21:43:44 50° SSE
Cosmos 2227 Rocket 2.1 21:38:45 18° SSW 21:43:05 89° ESE 21:48:48 10° NNE
Meteor 2-8 Rocket 4.5 21:42:18 28° SSW 21:45:48 82° W 21:51:59 10° N
Cosmos 1603 4.2 21:42:55 10° NNW 21:48:34 53° NE 21:50:37 36° ESE
ARIANE 5 R/B 4.3 21:46:52 18° SW 21:48:58 26° W 21:52:42 10° NW
Cosmos 1842 Rocket 3.6 21:49:34 60° ESE 21:49:47 61° E 21:54:13 10° NNE
Cosmos 841 Rocket 3.7 21:45:00 10° NNW 21:50:11 58° ENE 21:51:30 45° ESE
Cosmos 2297 Rocket 2.4 21:44:57 10° SW 21:50:34 69° NW 21:56:16 10° NNE
Cosmos 1190 Rocket 4.3 21:47:49 16° SW 21:52:01 65° WNW 21:57:14 10° NNE
H-2A R/B 3.5 21:48:37 10° NNE 21:52:51 78° WNW 21:53:41 56° SW
Cosmos 2219 3.4 21:47:42 10° SW 21:53:19 71° NW 21:58:58 10° NNE
Cosmos 1745 Rocket 4.2 21:48:17 10° N 21:54:35 61° ENE 21:56:33 42° SE
NOSS 3-1 (A) 4.0 21:52:36 10° NW 21:59:43 76° NE 22:04:04 31° ESE
Cosmos 921 Rocket 3.4 21:57:01 10° NNW 22:01:25 53° ENE 22:01:48 51° E
ATLAS 2AS CENTAUR R/B 4.0 21:54:12 10° W 22:01:44 46° NNW 22:08:58 10° NE
Cosmos 1862 3.3 21:58:02 10° NNW 22:01:59 68° W 22:02:04 68° WSW
Cosmos 1763 Rocket 3.5 21:56:57 10° NNW 22:01:59 65° WSW 22:02:58 53° SSW
Timation 2 Rocket 4.1 21:55:55 10° SW 22:02:28 76° NW 22:08:46 10° NNE
Cosmos 1408 Rocket 3.9 22:01:19 10° NNW 22:05:32 54° W 22:06:07 49° SW
Cosmos 676 Rocket 4.1 22:07:09 34° SW 22:09:25 73° WNW 22:14:37 10° NNE
Cosmos 2084 Rocket 3.7 22:10:44 52° NE 22:10:44 52° NE 22:13:54 10° NE
S3M 4.2 22:08:54 45° SE 22:10:24 55° E 22:16:38 10° NNE
Cosmos 1805 Rocket 3.7 22:06:50 10° N 22:11:09 58° ENE 22:11:11 58° ENE
CZ-4C R/B 4.2 22:06:45 10° WNW 22:12:07 33° N 22:18:32 10° ENE
Spot 4 3.9 22:11:46 59° ESE 22:12:24 66° ENE 22:17:14 10° N
SL-16 R/B 3.1 22:13:14 10° NW 22:18:23 36° WSW 22:19:46 32° SW
Sich 1 3.3 22:16:49 10° N 22:20:54 56° ENE 22:20:54 56° ENE
Cosmos 1743 Rocket 3.6 22:16:50 10° NNW 22:21:10 68° W 22:21:17 67° WSW
Cosmos 540 Rocket 3.3 22:16:18 10° NNW 22:21:27 79° WSW 22:22:04 67° S
Cosmos 1174 4.5 22:17:28 10° NW 22:22:17 52° NE 22:22:44 49° ENE
Meteor 2-15 Rocket 4.5 22:22:07 40° SSW 22:24:23 74° WNW 22:30:30 10° N
NOSS 3-1 (C) 4.1 22:18:39 10° NW 22:25:52 68° SW 22:28:42 43° SSE
Meteor 1-20 Rocket 4.4 22:22:23 10° N 22:28:12 65° ENE 22:29:20 53° SE
Cosmos 1570 Rocket 3.9 22:23:16 10° NNW 22:28:38 83° ENE 22:29:21 67° SE
Cosmos 2221 2.8 22:30:07 55° W 22:30:26 57° WNW 22:34:41 10° N
Cosmos 1386 Rocket 4.3 22:27:09 10° NNW 22:33:15 81° W 22:34:38 55° S
Cosmos 1633 Rocket 3.8 22:30:38 10° N 22:34:39 41° ENE 22:34:39 41° ENE
Cosmos 44 Rocket 3.3 22:36:36 74° S 22:37:02 82° SE 22:42:18 10° NE
Aureole 1 Rocket 3.4 22:38:07 68° SSE 22:38:33 73° ESE 22:43:14 10° NNE
TSX-5 4.1 22:40:24 73° NNE 22:40:24 73° NNE 22:43:55 10° NE
Cosmos 1500 Rocket 4.2 22:36:23 10° NNW 22:40:40 45° W 22:40:50 44° W
Cosmos 1553 Rocket 4.0 22:39:11 45° SSW 22:41:05 71° WNW 22:47:13 10° N
Cosmos 1666 Rocket 3.9 22:37:24 10° N 22:41:42 57° ENE 22:41:42 57° ENE
Cosmos 1943 3.1 22:42:44 10° NW 22:48:22 73° WSW 22:48:59 66° SSW
Cosmos 1741 Rocket 3.9 22:48:41 67° SW 22:49:26 85° WNW 22:54:46 10° NNE
ALOS 2 2.6 22:49:56 77° NNE 22:49:56 77° NNE 22:54:08 10° NNW
Lacrosse 5 rocket 1.6 22:45:46 10° WNW 22:49:47 73° NNW 22:49:47 73° NNW
Cosmos 1782 4.3 22:54:23 30° ENE 22:54:23 30° ENE 22:57:02 10° NNE
Cosmos 1850 Rocket 4.0 22:54:08 61° WSW 22:54:59 75° WNW 23:00:16 10° NNE
ATLAS 5 CENTAUR R/B 3.8 22:50:48 10° NW 22:55:09 30° NNE 23:00:10 10° ENE
Cosmos 1933 4.0 22:57:04 50° NE 22:57:04 50° NE 23:00:17 10° NNE
Thor Agena Rocket 4.3 22:54:05 10° NNE 22:58:37 38° E 22:58:37 38° E
Cosmos 2208 Rocket 4.0 22:58:09 10° NNW 23:03:27 67° WSW 23:03:42 66° SW
SeaSat 1 2.6 22:58:37 10° NNE 23:03:33 72° NW 23:04:24 58° WSW
COSMOS 2455 3.2 23:01:18 25° WSW 23:04:50 62° NW 23:10:50 10° NE
Cosmos 1606 3.8 23:09:01 39° NW 23:09:01 39° NW 23:12:05 10° N
Terra 4.2 23:07:51 12° WSW 23:09:09 13° W 23:11:17 10° WNW
Cosmos 2184 Rocket 4.5 23:04:44 10° N 23:10:58 53° ENE 23:12:34 43° ESE
Cosmos 2315 Rocket 3.9 23:10:31 61° SSE 23:11:41 79° E 23:18:05 10° NNE
Iridium 4 Rocket 3.4 23:11:57 72° E 23:12:01 72° E 23:17:19 10° N
Meteor 1-14 Rocket 4.3 23:14:31 10° NNW 23:20:34 79° ENE 23:21:32 63° SE
Cosmos 1151 Rocket 3.4 23:21:43 58° NE 23:21:43 58° NE 23:25:21 10° NNE
Cosmos 1500 4.1 23:17:42 10° N 23:20:36 46° NNE 23:20:36 46° NNE
Cosmos 968 Rocket 4.1 23:24:12 44° E 23:24:12 44° E 23:28:53 10° NE
Cosmos 2263 Rocket 2.1 23:24:25 67° SW 23:25:10 83° WNW 23:30:48 10° NNE
Cosmos 2227 Rocket 4.1 23:23:11 10° W 23:27:54 26° NW 23:32:39 10° NNE
USA 229 DEB 4.3 23:25:54 10° NW 23:32:43 44° WSW 23:33:33 42° SW
USA 229 4.3 23:26:00 10° NW 23:32:49 44° WSW 23:33:40 43° SW
NOSS 2-2 (D) 4.2 23:29:17 10° NW 23:34:15 81° NE 23:36:02 48° ESE
USA 281 3.1 23:33:03 51° SE 23:34:55 85° ENE 23:41:33 10° NNW
Cosmos 2297 Rocket 4.5 23:31:21 10° W 23:35:41 22° NNW 23:40:02 10° NNE
SL-4 R/B 4.4 23:41:44 18° E 23:41:44 18° E 23:43:02 10° E
Cosmos 836 Rocket 4.4 23:33:08 10° NNW 23:38:29 88° WSW 23:38:43 82° SSE
Cosmos 1844 Rocket 3.5 23:39:31 35° ESE 23:39:31 35° ESE 23:44:22 10° NE
Cosmos 1486 Rocket 4.4 23:40:25 50° ESE 23:40:25 50° ESE 23:45:27 10° NNE
Cosmos 2074 Rocket 3.9 23:35:52 10° N 23:42:10 84° E 23:43:22 61° SSE
Cosmos 1437 Rocket 4.1 23:43:52 33° NW 23:43:52 33° NW 23:46:48 10° N
Helios 1A 3.9 23:45:17 40° ENE 23:45:24 40° ENE 23:49:23 10° N
Meteor 1-5 Rocket 4.1 23:40:51 10° NNW 23:46:41 87° ENE 23:47:20 71° SSE
Cosmos 2082 Rocket 4.4 23:43:28 10° NNW 23:47:53 23° NNE 23:52:17 10° E
Meteor 2-6 Rocket 4.3 23:48:13 55° ESE 23:48:34 56° E 23:53:50 10° NNE
Cosmos 1515 Rocket 3.9 23:49:36 60° ENE 23:49:36 60° ENE 23:53:34 10° NNE
